St. Cloud, MN

5:48 PM CDT on May 24, 2017 (GMT -0500)
Saint Cloud Regional

Weather History for KSTC - December, 2014

Change the Weather History Date:

Friday, December 12, 2014

  Actual Average Record
Temperature  
Mean Temperature 36 °F 17 °F  
Max Temperature 38 °F 25 °F 52 °F (1913)
Min Temperature 34 °F 8 °F -17 °F (1942)
Degree Days  
Heating Degree Days 29 48  
Month to date heating degree days 516 553  
Since 1 July heating degree days 2448 2478  
Cooling Degree Days 0 0  
Month to date cooling degree days 0 0  
Year to date cooling degree days 597 465  
Moisture  
Dew Point 32 °F    
Average Humidity 87    
Maximum Humidity 92    
Minimum Humidity 82    
Precipitation  
Precipitation 0.00 in 0.03 in 0.22 in (1968)
Month to date precipitation 0.06 0.35  
Year to date precipitation 36.03 27.26  
Snow  
Snow 0.00 in 0.30 in 4.10 in (1941)
Month to date snowfall 0.2 3.8  
Since 1 July snowfall 17.8 13.0  
Snow Depth 2.00 in    
Sea Level Pressure  
Sea Level Pressure 30.16 in    
Wind  
Wind Speed 10 mph (South)    
Max Wind Speed 17 mph    
Max Gust Speed 22 mph    
Visibility 2 miles    
Events Fog    
T = Trace of Precipitation, MM = Missing Value Source: NWS Daily Summary

Daily Weather History Graph

Daily Weather History Graph

Search for Another Location

Airport or City:

Trip Planner

Search our weather history database for the weather conditions in past years. The results will help you decide how hot, cold, wet, or windy it might be!

Date:

Astronomy

Dec. 12, 2014 Rise Set
Actual Time 7:47 AM CST 4:32 PM CST
Civil Twilight 7:13 AM CST 5:06 PM CST
Nautical Twilight 6:35 AM CST 5:44 PM CST
Astronomical Twilight 5:59 AM CST 6:20 PM CST
Moon 10:53 PM CST (12/12) 11:29 AM CST (12/12)
Length of Visible Light 9h 53m
Length of Day
8h 45m
Waning Gibbous, 67% of the Moon is Illuminated
Dec 12
Waning Gibbous
Dec 14
Last Quarter
Dec 21
New
Dec 28
First Quarter
Jan 4
Full

Hourly Weather History & Observations

Time (CST) Temp. Windchill Dew Point Humidity Pressure Visibility Wind Dir Wind Speed Gust Speed Precip Events Conditions
12:53 AM 35.1 °F 27.9 °F 30.9 °F 85% 30.23 in 4.0 mi SSW 9.2 mph - N/A   Overcast
1:20 AM 35.1 °F 27.4 °F 30.9 °F 85% 30.17 in 4.0 mi SSW 10.4 mph - N/A   Overcast
1:53 AM 35.1 °F 29.3 °F 30.9 °F 85% 30.23 in 4.0 mi South 6.9 mph - N/A   Overcast
2:53 AM 35.1 °F 27.9 °F 30.9 °F 85% 30.22 in 4.0 mi SSW 9.2 mph - N/A   Overcast
3:53 AM 35.1 °F 29.3 °F 30.9 °F 85% 30.23 in 3.0 mi South 6.9 mph - N/A   Overcast
4:53 AM 35.1 °F 29.3 °F 30.9 °F 85% 30.21 in 3.0 mi South 6.9 mph - N/A   Overcast
5:53 AM 35.1 °F 27.9 °F 30.9 °F 85% 30.22 in 3.0 mi South 9.2 mph - N/A   Overcast
6:53 AM 35.1 °F 26.9 °F 30.9 °F 85% 30.22 in 3.0 mi South 11.5 mph - N/A   Overcast
7:53 AM 35.1 °F 26.9 °F 30.0 °F 82% 30.21 in 3.0 mi South 11.5 mph - N/A   Haze
8:03 AM 35.1 °F 27.4 °F 30.0 °F 82% 30.15 in 2.0 mi South 10.4 mph - N/A   Haze
8:53 AM 35.1 °F 27.9 °F 30.9 °F 85% 30.22 in 1.8 mi South 9.2 mph - N/A   Overcast
9:03 AM 35.1 °F 26.9 °F 30.9 °F 85% 30.16 in 2.0 mi South 11.5 mph - N/A   Overcast
9:53 AM 35.1 °F 26.9 °F 30.9 °F 85% 30.21 in 2.0 mi South 11.5 mph - N/A   Overcast
10:53 AM 35.1 °F 26.9 °F 30.9 °F 85% 30.21 in 2.5 mi South 11.5 mph - N/A   Overcast
11:53 AM 35.1 °F 25.9 °F 30.9 °F 85% 30.19 in 2.5 mi SSE 13.8 mph - N/A   Overcast
12:53 PM 35.1 °F 25.9 °F 30.9 °F 85% 30.17 in 2.5 mi South 13.8 mph - N/A   Overcast
1:53 PM 36.0 °F 28.0 °F 30.9 °F 82% 30.15 in 2.5 mi South 11.5 mph - N/A   Haze
2:53 PM 36.0 °F 27.5 °F 30.9 °F 82% 30.17 in 2.5 mi South 12.7 mph - N/A   Haze
3:53 PM 35.1 °F 27.9 °F 30.9 °F 85% 30.16 in 2.0 mi South 9.2 mph - N/A   Overcast
4:53 PM 35.1 °F 25.9 °F 30.9 °F 85% 30.14 in 3.0 mi South 13.8 mph - N/A   Overcast
5:49 PM 35.6 °F 28.6 °F 32.0 °F 87% 30.08 in 2.5 mi SSE 9.2 mph - N/A   Overcast
5:53 PM 35.1 °F 27.9 °F 32.0 °F 89% 30.14 in 2.0 mi SSE 9.2 mph - N/A   Overcast
6:04 PM 35.1 °F 26.9 °F 32.0 °F 89% 30.07 in 1.5 mi SSE 11.5 mph - N/A   Overcast
6:34 PM 36.0 °F 28.5 °F 33.1 °F 89% 30.07 in 0.8 mi SSE 10.4 mph - N/A   Overcast
6:53 PM 36.0 °F 29.6 °F 33.1 °F 89% 30.13 in 0.5 mi SSE 8.1 mph - N/A Fog Fog
7:53 PM 36.0 °F 29.0 °F 34.0 °F 93% 30.12 in 0.5 mi SSE 9.2 mph - N/A Fog Fog
8:53 PM 37.0 °F 31.0 °F 35.1 °F 93% 30.12 in 0.5 mi South 8.1 mph - N/A Fog Fog
9:44 PM 37.0 °F 30.4 °F 34.0 °F 89% 30.04 in 0.2 mi SSE 9.2 mph - N/A Fog Fog
9:53 PM 36.0 °F 29.6 °F 34.0 °F 93% 30.10 in 0.2 mi SE 8.1 mph - N/A Fog Fog
10:53 PM 37.0 °F 31.0 °F 34.0 °F 89% 30.10 in 0.2 mi SSE 8.1 mph - N/A Fog Fog
11:53 PM 37.9 °F 31.5 °F 36.0 °F 93% 30.09 in 0.2 mi South 9.2 mph - N/A Fog Fog